PAYLOAD C

Satellite information

Favourite Embed

Satellite Type and Status

PAYLOADIN ORBIT

Key statistics

Satellite PAYLOAD C at a glance.

Uptime

4371

Days in orbit

Revolutions

≈ 14.7

Per day

Orbit

SSO

Sun Synchronous Orbit

Inclination

98.1

Latest

Satellite identification and parameters

Extended collection of information and parameters for PAYLOAD C.

Object identification

Identified? True

Debris? False

Object name: PAYLOAD C

International designator: 2013-037C

Object number (NORAD): 39210

Object ID (CCSDS): 39210

Country: PEOPLES REPUBLIC OF CHINA (PRC)

Current information (Y/N): Y

RCS size: LARGE

Orbital parameters

Period: 97.907 minutes

Inclination: 98.0939 deg

SMA: 7036.681 km

Apoapsis: 663.261 km

Periapsis: 653.831 km

RAAN: 187.6526 deg

Eccentricy: 0.00067

Argument of periapsis: 155.4985 deg

Mean anomaly: 204.6541 deg

Mean motion: 14.70790994 rev/day

Mean motion (dot): 0.00000548 rev/day2

B* drag term: 0.000097926 1/REarth

Two-line elements (TLE)

Creation date: July 6, 2025, 10:56 p.m.

Reference frame: TEME

Reference center: EARTH

Epoch: July 6, 2025, 8:31 p.m. UTC

TLE line 0: 0 PAYLOAD C

TLE line 1: 1 39210U 13037C 25187.85546631 .00000548 00000-0 97926-4 0 9994

TLE line 2: 2 39210 98.0939 187.6526 0006700 155.4985 204.6541 14.70790994643555

Live tracking on map

Real-time ground track for satellite PAYLOAD C.

In-orbit conjunctions

There are no conjunctions computed for PAYLOAD C, at the moment. Check back to stay up to date, as we update our databases every day.

Go to all conjunctions

Associated space launch

PAYLOAD C was lifted into orbit during the mission ‘Long March 4C | Shijian 15, Shiyan 7 & ChuangXin 3’, on board a Long March 4C space rocket.

The launch took place on July 19, 2013, 11:37 p.m. from Launch Complex 9.

For more information about the launch, click the button.

Launch to space Long March 4C | Shijian 15, Shiyan 7 & ChuangXin 3
Long March 4C | Shijian 15, Shiyan 7 & ChuangXin 3

Agency: N/A

Status: Launch Successful

Launch date: July 19, 2013, 11:37 p.m. UTC

Rocket: Long March 4C

Launch pad: Launch Complex 9

Location: Taiyuan Satellite Launch Center, People's Republic of China

...

Latest news about this satellite

There are no fresh news available about this satellite. Check back as we update our databases every day.


Newsletter sign-up

Weekly statistics, charts and insights to help you stay on top of the space industry.